Location: Newark
(42.9858°N, 0.6717°E)
Time: 19:36:21
(UTC+00:00)

S-56A Canister/Altair - Pass Details

Date: 28 November 2019
Orbit: 633 x 2499 km, 38.9° (Epoch: 04 December)

Event Time Altitude Azimuth Distance (km) Brightness Sun altitude
Rises 14:25:38 0° 242° (WSW) 6,117 13.4 15.9°
Reaches altitude 10° 14:29:53 10° 240° (WSW) 5,002 13.3 15.4°
Maximum altitude 14:43:29 62° 165° (SSE) 2,122 10.2 13.7°
Drops below altitude 10° 14:53:01 10° 87° (E) 3,607 10.6 12.5°
Sets 14:55:35 0° 84° (E) 4,363 10.9 12.2°
